Location: Zapote
(9.9191°N, 84.0597°W)
Time: 16:23:30
(UTC-06:00)

Courier 1B Rocket - Pass Details

Date: 12 March 2021
Orbit: 920 x 1202 km, 28.2° (Epoch: 11 April)

Event Time Altitude Azimuth Distance (km) Brightness Sun altitude
Rises 17:53:33 0° 294° (WNW) 3,921 9.5 -2.4°
Reaches altitude 10° 17:56:16 10° 291° (WNW) 3,000 8.9 -3.1°
Maximum altitude 18:03:42 68° 210° (SSW) 1,251 5.8 -4.9°
Drops below altitude 10° 18:11:28 10° 128° (SE) 3,124 7.2 -6.8°
Sets 18:14:21 0° 126° (SE) 4,092 7.8 -7.5°
